Content
SEND FEEDBACK

Daily
Averages
Monthly
Summary
United States of America

SOUTH LAKE TAHOE, CALIFORNIA


Home > North America > United States > California
Elevation: 6263 feet     Latitude: 38 53N     Longitude: 119 59W

WEATHER
 
SELECT A DAY
Number of Records: 178,583;   Date Range: 1/1/95 - 12/17/14
 
SHARE

PRINT THIS DATA

[ ← Previous Day ]
WEATHER ALMANAC - APRIL 6, 2013
[ Next Day → ]
[ °C ]   °F
Weather ElementAverageHighLow
Temperature44.6 °F52 °F (12:53 pm)37.9 °F (6:53 am)
Dewpoint26.9 °F32 °F (12:53 pm)19 °F (5:53 am)
Humidity50.6 %63 % (7:53 pm)37 % (2:53 pm)
Barometer30.08 in30.11 in (7:53 am)30.05 in (5:53 am)
Wind Speed8.8 mph17.3 mph (11:53 am)
Wind Gust26.5 mph (3:53 pm)
Weather ElementAverage
Visibility10 mi
Wind DirectionSSE (154.3 °)

Weather ElementTotal
Precipitation---
Heating Degree Days20.1 (Base 65)
Averaged from 23 records on April 6, 2013
WEATHER CONDITIONS BREAKOUT
WIND DIRECTION BREAKOUT
WEATHER BY HOUR - APRIL 6, 2013
[ °C ]   °F
Local TimeTemperatureDewpointHumidityBarometerVisibilityWind DirectionWind SpeedGust SpeedPrecipitationEventsConditions
1:53 AM42.1 °F21.0 °F43 %30.07 in10.0 miCalmOvercast
2:53 AM39.0 °F21.9 °F50 %30.07 in10.0 miCalmOvercast
3:53 AM39.9 °F21.0 °F47 %30.06 in10.0 miVariable3.5 mphOvercast
4:53 AM39.9 °F21.9 °F49 %30.06 in10.0 miCalmOvercast
5:53 AM41.0 °F19.0 °F41 %30.05 in10.0 miSouth (190°)8.1 mphOvercast
6:53 AM37.9 °F25.0 °F60 %30.09 in10.0 miCalmOvercast
7:53 AM39.9 °F24.1 °F53 %30.11 in10.0 miSouth (190°)8.1 mphOvercast
8:53 AM41.0 °F27.0 °F57 %30.11 in10.0 miSouth (180°)11.5 mphOvercast
9:53 AM44.1 °F27.0 °F51 %30.11 in10.0 miSouth (180°)12.7 mphOvercast
10:53 AM48.0 °F28.9 °F48 %30.09 in10.0 miSouth (180°)13.8 mphMostly Cloudy
11:53 AM50.0 °F30.9 °F48 %30.09 in10.0 miSouth (190°)17.3 mph20.7 mphMostly Cloudy
12:53 PM52.0 °F32.0 °F47 %30.08 in10.0 miSouth (190°)16.1 mph24.2 mphMostly Cloudy
1:53 PM52.0 °F28.9 °F41 %30.06 in10.0 miSouth (190°)17.3 mph21.9 mph0.00 inScattered Clouds
2:53 PM52.0 °F26.1 °F37 %30.06 in10.0 miSSW (200°)9.2 mph19.6 mphClear
3:53 PM51.1 °F27.0 °F39 %30.05 in10.0 miSSW (210°)13.8 mph26.5 mphClear
4:53 PM48.9 °F28.9 °F46 %30.06 in10.0 miSSW (210°)9.2 mph23.0 mphOvercast
5:53 PM48.0 °F28.9 °F48 %30.06 in10.0 miSSW (210°)5.8 mphMostly Cloudy
6:53 PM46.0 °F30.0 °F54 %30.07 in10.0 miSSW (200°)8.1 mphMostly Cloudy
7:53 PM44.1 °F32.0 °F63 %30.07 in10.0 miSouth (190°)9.2 mphPartly Cloudy
8:53 PM42.1 °F30.0 °F62 %30.09 in10.0 miSW (220°)5.8 mphClear
9:53 PM43.0 °F28.9 °F58 %30.10 in10.0 miSouth (190°)13.8 mph18.4 mphMostly Cloudy
10:53 PM42.1 °F30.0 °F62 %30.06 in10.0 miSW (220°)10.4 mph17.3 mphClear
11:53 PM42.1 °F28.9 °F60 %30.06 in10.0 miSSW (210°)9.2 mphMostly Cloudy
Hourly data recorded from KTVL, located miles away from South Lake Tahoe, California







STORIES FROM OUR PARTNERS